sat.trackr.live / text

‹ back to catalog

HORS 1

NORAD 57188 · 2023-091Y

PAYLOAD ACTIVE UNKNOWN

§ Identity

Operator
Country
CIS
Launch date
2023-06-27
Launch site
VOSTO
Launch vehicle
Mass (kg)
RCS (m²)

External: N2YO · Heavens-Above · Gunter

§ Orbital elements

Epoch: 2026-05-25T04:01:11.527392Z

Period
94.35 min
Inclination
97.5079°
Eccentricity
0.0009592
Mean motion
15.26254956 rev/d
Perigee alt
480.4 km
Apogee alt
493.6 km
Semi-major
6,865.2 km
B*
3.3628e-4
RAAN
208.6289°
Arg perigee
164.1145°
Mean anomaly
196.0395°
Rev number
16,080

§ Raw data

HORS 11 57188U 23091Y   26145.16749453  .00008652  00000+0  33628-3 0  99962 57188  97.5079 208.6289 0009592 164.1145 196.0395 15.26254956160803

JSON: /api/v1/satellites/57188 · /tle

For live sub-satellite position, see the globe view (requires WebGL).

§ Visibility from observer

Set your observer location to see the next 7 days of passes ≥ 10°. The values pass through the URL so the page stays shareable.

No JS? Fill the form by hand. The geolocation button needs JavaScript.

§ Radio — SatNOGS DB

ModeDescriptionDownlinkUplink
FSK Mode U - FSK 9K6 435.300 MHz
FSK Mode U - Transmitter 435.300 MHz

2 transmitters · refreshed weekly from db.satnogs.org